sat.trackr.live / text

‹ back to catalog

STARLINK-32899

NORAD 62994 · 2025-031P

PAYLOAD ACTIVE UNKNOWN

§ Identity

Operator
Country
US
Launch date
2025-02-11
Launch site
AFETR
Launch vehicle
Mass (kg)
RCS (m²)

Purposes: comms

External: N2YO · Heavens-Above · Gunter

§ Orbital elements

Epoch: 2026-09-21T00:25:31.758816Z

Period
94.27 min
Inclination
43.0037°
Eccentricity
0.0002849
Mean motion
15.27602213 rev/d
Perigee alt
481.0 km
Apogee alt
484.9 km
Semi-major
6,861.1 km
B*
4.3335e-4
RAAN
120.6129°
Arg perigee
284.9498°
Mean anomaly
75.1038°
Rev number
9,096

§ Raw data

STARLINK-328991 62994U 25031P   26264.01772869  .00011690  00000+0  43335-3 0  99982 62994  43.0037 120.6129 0002849 284.9498  75.1038 15.27602213 90964

JSON: /api/v1/satellites/62994 · /tle

For live sub-satellite position, see the globe view (requires WebGL).

§ Visibility from observer

Set your observer location to see the next 7 days of passes ≥ 10°. The values pass through the URL so the page stays shareable.

No JS? Fill the form by hand. The geolocation button needs JavaScript.